Regional Weather Roundup
Issued by NWS

Home | Current Version | Previous Version | Graphics & Text | Print | Product List | Glossary On
Versions: 1 2 3 4 5 6 7 8 9 10 11 12 13 14 15 16 17 18 19 20 21 22 23 24 25 26 27 28 29 30 31 32 33 34 35 36 37 38 39 40 41 42 43 44 45 46 47 48 49 50
000
ASUS43 KMKX 041700
RWRWI

WISCONSIN REGIONAL WEATHER ROUNDUP
NATIONAL WEATHER SERVICE MILWAUKEE/SULLIVAN WI
1200 PM CDT SAT JUL 04 2015

NOTE: "FAIR" INDICATES FEW OR NO CLOUDS BELOW 12,000 FEET WITH NO
SIGNIFICANT WEATHER AND/OR OBSTRUCTIONS TO VISIBILITY.

WIZ001-002-006>008-014>016-023>028-041800-
NORTHWEST WISCONSIN

CITY           SKY/WX    TMP DP  RH WIND       PRES   REMARKS
SUPERIOR ARPT  SUNNY     67  60  78 NE10      29.97S
ASHLAND        SUNNY     73  65  75 N7        29.97S
HAYWARD        SUNNY     79  56  45 E3        29.96S HX  80
SIREN          SUNNY     80  58  47 SW3       29.95S HX  80
CUMBERLAND     SUNNY     77  61  57 CALM      29.97S
RICE LAKE      SUNNY     77  63  61 CALM      29.98S
CHETEK         SUNNY     77  66  67 MISG      29.96S
LADYSMITH      SUNNY     78  62  57 SE5       29.99S HX  80
EAU CLAIRE     NOT AVBL
MENOMONIE      SUNNY     77  65  66 S5        29.96F
NEW RICHMOND   SUNNY     77  63  61 S3        29.96S HAZE
OSCEOLA        SUNNY     79  64  59 CALM      29.97S HX  81
$$

WIZ003>005-009-010-017-018-041800-
NORTH CENTRAL WISCONSIN

CITY           SKY/WX    TMP DP  RH WIND       PRES   REMARKS
MANITOWISH WTR SUNNY     74  60  60 NE5       29.99S
ARBOR VITAE    MOSUNNY   74  56  53 CALM      29.99F
WOODRUFF       MOSUNNY   74  56  53 CALM      29.99F
RHINELANDER    MOSUNNY   77  53  43 CALM      29.99F
EAGLE RIVER    MOSUNNY   75  52  43 CALM      29.99S
LAND O LAKES   SUNNY     76  54  46 CALM      30.00F
PHILLIPS       SUNNY     76  57  50 CALM      29.98S
TOMAHAWK       SUNNY     75  58  55 CALM      29.99F
MEDFORD        MOSUNNY   75  62  64 CALM      29.99S
MERRILL        SUNNY     76  62  62 CALM      29.98F
$$

WIZ029-030-035-036-043>047-041800-
CENTRAL WISCONSIN

CITY           SKY/WX    TMP DP  RH WIND       PRES   REMARKS
WAUSAU         MOSUNNY   78  61  55 SW6       29.96S HX  80
MOSINEE        MOSUNNY   75  64  69 VRB5      29.99S
MARSHFIELD     SUNNY     76  61  59 CALM      29.98S
STEVENS POINT  SUNNY     75  61  61 CALM      29.98S
WAUPACA        SUNNY     80  62  54 E3        29.98S HX  81
WAUTOMA        NOT AVBL
WISC RAPIDS    SUNNY     77  60  55 S5        29.99S
CAMP DOUGLAS   NOT AVBL
$$

WIZ011>013-019>022-031-037>040-048>050-041800-
NORTHEAST WISCONSIN

CITY           SKY/WX    TMP DP  RH WIND       PRES   REMARKS
ANTIGO         SUNNY     74  62  66 CALM      30.00R
SHAWANO        SUNNY     76  63  63 NE5       29.97S
OCONTO         SUNNY     74  62  65 E6        29.97S
STURGEON BAY   SUNNY     72  63  73 E8        30.01S
GREEN BAY      SUNNY     77  62  59 CALM      29.97S
MANITOWOC      NOT AVBL
APPLETON       PTSUNNY   75  59  57 W5        29.98S
CLINTONVILLE   MOSUNNY   77  61  57 CALM      29.97S
OSHKOSH        MOSUNNY   77  63  61 E6        29.98R
$$

WIZ032>034-041-042-053>061-041800-
SOUTHWEST WISCONSIN

CITY           SKY/WX    TMP DP  RH WIND       PRES   REMARKS
LA CROSSE      SUNNY     79  61  53 S6        29.97S HX  80
SPARTA         SUNNY     79  57  46 SW6       29.98S
VIROQUA        SUNNY     77  59  53 S5        30.01R
BOSCOBEL       SUNNY     80  55  42 VRB5      29.99S HX  80
PRAIRIE DU CHI SUNNY     76  59  55 S5        29.99S
PLATTEVILLE    SUNNY     76  60  55 SW8       30.01S
$$

WIZ056-057-062-063-064-067-068-041800-
SOUTH CENTRAL WISCONSIN

CITY           SKY/WX    TMP DP  RH WIND       PRES   REMARKS
REEDSBURG      SUNNY     76  60  55 SW3       29.98S
BARABOO/DELLS  SUNNY     77  58  52 S6        29.99S
LONE ROCK      NOT AVBL
MINERAL POINT  SUNNY     77  55  47 CALM      30.02R
MADISON        SUNNY     77  59  53 SW6       29.99S
MIDDLETON      SUNNY     78  54  42 CALM      30.00S
WATERTOWN      SUNNY     76  61  59 SW3       29.99S
MONROE         SUNNY     75  57  53 W5        30.01S
JANESVILLE     MOSUNNY   77  57  50 W8        30.00R
$$

WIZ051-052-058>065-066-070>072-041800-
SOUTHEAST WISCONSIN

CITY           SKY/WX    TMP DP  RH WIND       PRES   REMARKS
MILWAUKEE      MOSUNNY   79  58  48 VRB3      29.99S HX  80
WAUKESHA       SUNNY     75  57  53 SW7       30.01R
MILWAUKEE/TIMM SUNNY     79  54  41 MISG      30.00S
RACINE         SUNNY     77  60  55 SE8       30.01S
BURLINGTON     MOSUNNY   75  58  55 SW5       30.00S
KENOSHA        SUNNY     77  59  53 SW6       30.01R
FOND DU LAC    MOSUNNY   78  61  55 VRB5      29.99R HX  80
SHEBOYGAN      SUNNY     78  61  55 SW5       29.98S HX  80
WEST BEND      SUNNY     77  59  53 CALM      29.99S
JUNEAU         SUNNY     75  60  59 SW5       30.01S
$$

LSZ147-162-041800-
LAKE SUPERIOR

STATION/POSITION TIME  TEMP    WIND        PRES    WAVE
                       AIR SEA DIR/SP/G            HT/PER
                 (UTC) (F)     (DEG/KT/KT) (MB)    (FT/S)
W MID LAKE BUOY  1550   42 39   30/  6/  6 1015.8F   0
DEVILS ISLAND    1600   57      70/  5/  6 1015.5S
SAXON HARBOR     1600   60        CALM     1014.9S
$$

LMZ867-665-643>646-041800-
LAKE MICHIGAN

STATION/POSITION TIME  TEMP    WIND        PRES    WAVE
                       AIR SEA DIR/SP/G            HT/PER
                 (UTC) (F)     (DEG/KT/KT) (MB)    (FT/S)
CHAMBERS ISLAND  1600   67      10/  7/  7 1015.2R
N MID LAKE BUOY  1550   53 47  180/  2/  4 1015.5R   1
NORTHPORT PIER   1600   64     120/  4/  4 1015.2R
SISTER BAY       1559   67     350/ 10/ 11   N/A
ALGOMA LAKESHORE 1610           70/ 12/ 14   N/A
KEWAUNEE LAKESHO 1600   65      40/  6/  8 1014.7R
SHEBOYGAN LAKESH 1600   69     130/  7/  7 1015.2R
PORT WASHINGTON  1600   69     160/  6/  8 1015.6S
ATWATER BUOY     1600   65 60  130/  4/  6 1016.7S
MILWAUKEE LAKESH 1600   70     100/  5/  6   N/A
KENOSHA   LAKESH 1600   73     120/  5/  7 1015.6R
$$

TC  - TEMPERATURE IN CELSIUS
VSB - VISIBILITY IN STATUTE MILES
WCI - WIND CHILL INDEX
HX  - HEAT INDEX



USA.gov is the U.S. government's official web portal to all federal, state and local government web resources and services.